Wind_Speed
16 16 16 16 16 16 16 15 15 14 14 13 13 13 12 12 11 11 11 10 10 9 10 10 10 10 10 10 10 11 12 12 13 13 12 13 13 12 13 14 13 14 14 13 13 12 12 12 11 11 11 11 11 11 11 13 14 14 15 16 18 17 17 15 16 17 11 10 6 3 3 4 4 7 7 8 9 12 12 9 15 18 16 14 12 10 12 14
16 16 16 16 16 15 15 15 15 14 14 13 13 13 12 11 10 10 10 9 9 9 9 10 10 10 10 10 9 10 11 11 12 12 11 12 12 12 12 12 12 13 12 12 11 11 11 9 8 9 10 10 10 11 10 12 16 16 16 17 19 18 17 17 19 16 6 7 8 8 3 2 5 10 9 10 10 11 13 12 16 22 21 19 16 11 13 14
15 15 15 15 15 15 15 15 14 14 13 13 12 12 11 10 9 9 9 8 8 8 9 9 9 9 9 9 8 8 8 9 10 10 10 11 11 11 11 11 11 10 10 11 11 11 10 6 5 7 9 10 11 12 12 13 16 17 17 19 19 17 17 19 19 16 10 11 13 10 8 5 6 11 9 10 11 11 14 15 18 21 22 20 17 12 12 14
14 14 14 14 14 14 14 14 14 13 13 12 11 11 10 9 8 8 8 8 8 8 9 8 8 8 7 7 6 5 4 6 8 7 7 8 9 10 10 10 10 9 10 12 13 12 11 8 7 9 11 12 11 12 14 15 14 15 18 20 19 17 17 16 14 14 13 14 14 13 11 10 10 10 9 9 12 13 12 15 19 22 24 21 18 14 14 17
13 13 13 13 13 13 13 13 12 12 12 11 10 10 9 8 8 7 7 7 7 8 8 8 7 6 6 5 4 3 3 4 5 6 5 6 7 9 10 10 9 10 11 11 13 14 12 11 10 11 13 13 13 14 16 16 15 15 17 19 19 19 18 14 10 10 10 12 15 16 14 14 12 11 12 10 11 11 10 15 18 22 28 23 19 17 17 20
11 12 11 11 11 11 11 11 11 11 10 9 9 9 8 8 7 7 6 7 7 7 8 7 7 5 5 4 4 5 5 1 8 7 5 5 6 7 9 10 10 11 12 11 13 13 12 12 11 11 13 14 14 16 16 16 16 18 18 17 17 19 19 14 10 9 8 10 13 14 14 13 12 13 13 12 12 10 13 19 15 18 26 22 18 19 21 22
9 10 10 9 9 9 9 9 9 9 9 9 9 8 8 7 7 6 6 6 6 7 7 6 6 4 4 3 5 7 7 7 9 7 6 5 4 6 8 9 11 11 11 12 13 10 9 10 10 11 12 13 14 15 16 16 17 20 19 17 16 16 17 16 14 13 11 11 12 12 13 13 13 13 11 11 12 10 13 18 18 19 22 20 20 21 22 23
8 7 8 7 7 8 7 8 8 8 8 8 8 8 7 7 6 6 6 6 6 6 5 5 5 4 4 3 5 4 6 9 7 6 7 5 5 6 7 9 11 11 11 13 13 8 7 9 10 12 12 13 12 13 15 16 18 19 19 18 18 16 15 15 15 15 14 13 12 12 14 15 14 13 11 10 10 10 13 17 20 19 18 19 21 21 22 23
7 6 6 6 6 6 7 7 7 8 8 8 8 8 7 7 6 6 6 5 5 5 4 4 4 4 3 4 4 2 4 11 9 9 8 5 6 5 7 9 10 11 13 12 10 8 9 8 10 12 13 14 12 13 14 14 15 16 18 18 18 17 15 14 15 16 16 14 13 13 15 15 13 13 13 12 10 9 13 17 18 19 18 17 17 20 23 24
8 7 6 6 6 6 6 6 7 8 8 8 8 7 7 7 6 6 6 5 5 4 3 4 4 4 4 6 5 3 7 14 11 9 7 5 6 5 7 9 10 12 12 9 7 9 10 8 9 10 13 15 12 12 13 15 14 12 14 16 17 17 16 15 15 14 14 14 14 13 15 15 12 13 13 11 11 10 13 17 18 21 22 19 17 19 23 24
8 7 7 6 6 6 7 7 7 8 8 8 7 7 7 7 6 6 6 5 4 4 3 4 5 5 7 8 6 1 8 14 10 6 5 4 5 4 6 9 10 12 11 5 8 10 10 8 9 11 11 11 11 11 14 16 15 13 12 14 16 16 17 18 16 15 14 14 14 13 15 14 12 14 13 12 13 12 16 19 18 21 20 18 18 18 22 21
8 7 7 6 5 6 7 8 8 8 8 8 7 8 7 7 7 6 6 5 4 4 4 4 5 7 7 7 8 5 8 11 9 5 4 5 4 4 6 9 10 11 9 4 8 8 11 11 10 12 10 8 9 8 11 14 14 15 13 14 17 17 19 20 18 16 15 15 14 13 14 14 14 14 11 12 12 11 15 14 14 18 15 17 19 19 22 18
8 7 7 6 6 5 6 8 10 10 9 9 8 8 8 8 7 7 6 5 5 4 4 5 6 7 6 4 7 8 8 7 6 4 4 5 3 5 4 7 11 12 9 7 7 8 13 14 11 12 10 10 10 8 8 9 11 14 14 16 17 17 21 20 18 15 15 16 13 13 14 15 16 15 12 12 10 10 13 11 10 12 10 14 17 18 20 17
7 7 6 6 6 5 5 6 8 10 11 10 10 10 9 9 8 7 6 5 5 4 5 6 6 7 7 4 6 6 6 5 4 5 5 5 5 6 4 6 9 11 14 14 7 10 13 13 12 11 10 11 12 12 10 10 12 12 14 15 15 18 21 17 15 13 13 13 13 13 14 14 13 14 15 12 9 11 12 12 13 10 10 14 15 15 17 16
7 6 6 6 5 5 5 5 6 7 9 10 11 12 11 9 8 8 7 5 5 5 6 6 7 7 4 5 8 5 5 5 4 5 6 6 6 6 5 6 7 8 12 14 8 9 11 10 11 10 8 8 10 11 10 12 13 11 13 15 16 20 16 13 16 13 11 12 15 12 14 15 14 14 15 10 10 11 10 11 15 13 14 14 13 15 17 14
6 6 5 5 5 5 5 5 6 6 6 7 9 10 10 10 9 8 7 6 5 5 7 7 8 7 2 3 7 6 5 5 4 5 7 6 7 2 2 6 6 6 6 7 6 7 8 7 8 9 9 10 11 12 11 12 13 13 13 13 15 18 10 14 16 13 11 13 15 14 16 15 11 13 12 9 9 10 10 11 12 13 14 13 12 14 15 12
5 5 5 5 5 6 6 5 6 6 5 5 5 5 7 8 9 9 8 6 6 5 6 7 6 7 4 3 6 6 4 5 5 5 6 9 9 4 5 4 3 3 3 3 3 4 6 6 7 8 8 10 12 12 12 13 14 13 13 13 14 16 11 11 13 13 10 12 12 13 19 15 8 13 9 8 9 10 12 12 10 10 12 13 14 14 13 11
5 5 5 5 5 5 6 6 6 6 5 4 3 2 3 3 6 8 9 8 6 6 6 7 7 6 7 6 4 5 4 6 6 5 5 10 14 10 9 5 4 4 3 2 3 1 4 7 8 9 9 10 12 14 14 12 9 6 8 13 13 13 12 8 8 12 10 11 12 12 17 16 10 12 9 8 10 12 13 13 12 11 13 14 14 15 14 12
5 5 5 5 5 5 5 5 5 5 4 3 1 1 3 4 3 4 8 10 9 9 6 5 8 4 4 3 1 4 7 9 7 7 6 8 13 11 9 7 6 6 5 7 6 3 6 8 9 11 12 11 12 13 10 5 7 10 10 11 11 10 12 8 5 9 10 11 12 13 16 17 13 12 12 10 8 10 11 11 14 15 15 12 11 14 14 14
6 6 6 5 5 5 5 5 4 3 3 1 1 4 6 8 6 8 9 11 12 13 9 3 9 4 2 1 6 9 11 10 8 8 8 8 9 9 10 9 8 9 9 10 8 5 8 11 12 13 10 9 8 7 7 7 7 9 11 10 8 9 11 9 7 9 9 8 9 12 16 16 15 14 14 10 7 10 12 10 12 14 11 8 10 12 13 13
7 6 6 6 5 5 5 5 4 3 1 0 2 5 5 10 5 6 10 8 10 15 12 3 7 9 5 5 8 10 9 7 8 9 9 9 8 9 11 10 10 11 10 10 10 7 9 12 14 13 10 10 9 10 13 14 12 10 10 10 7 9 8 6 7 7 7 7 9 11 14 14 15 17 16 12 9 11 13 12 12 14 13 11 11 14 15 13
8 7 6 6 5 5 5 5 5 4 2 1 2 5 2 7 7 9 12 10 9 15 15 10 11 14 13 10 8 9 8 8 8 9 11 10 9 10 10 8 10 13 10 9 9 9 11 14 14 10 9 9 10 12 14 16 15 12 10 10 11 11 8 8 8 5 3 4 8 9 12 15 15 17 16 13 13 13 13 14 14 14 16 14 14 18 19 15
8 7 6 6 5 6 5 5 4 3 2 0 2 4 3 5 8 9 12 11 9 12 17 18 17 16 16 14 12 11 12 12 10 11 13 12 11 11 11 10 10 12 12 12 12 12 13 12 11 12 13 11 10 11 10 12 13 12 11 12 13 12 11 8 7 5 3 2 6 10 14 17 13 13 17 15 16 17 15 16 16 16 17 14 14 19 20 15
7 7 6 6 6 6 5 5 4 3 2 1 3 5 4 5 7 8 11 11 10 11 15 19 18 17 17 15 13 13 13 14 12 14 15 11 11 13 12 13 13 12 13 14 13 14 15 11 8 12 15 11 8 8 9 10 11 12 13 15 16 13 12 10 2 3 5 7 10 13 16 18 14 11 15 15 15 16 16 15 16 16 16 15 14 18 20 16
6 6 6 6 6 6 6 6 5 4 2 2 4 4 3 6 8 9 10 9 10 10 11 17 18 17 16 14 12 11 13 14 12 17 19 13 12 16 12 11 14 13 13 13 14 17 15 9 6 7 11 9 7 9 9 10 12 13 14 15 17 16 13 11 6 3 5 10 13 13 12 14 15 14 16 18 17 16 15 14 14 14 15 14 14 16 17 14
7 6 6 6 6 7 7 5 5 4 3 7 6 5 6 8 7 9 9 8 11 8 9 14 16 16 17 17 13 10 12 14 11 16 20 13 13 16 12 10 13 14 13 11 13 17 13 7 5 5 8 9 9 12 12 12 13 13 12 11 13 15 14 13 12 9 9 10 9 10 9 9 12 15 15 17 19 17 15 14 14 14 14 14 14 14 13 11
8 7 7 7 6 7 6 5 6 1 5 6 7 8 10 8 6 8 6 7 10 10 12 14 14 14 17 17 14 12 11 11 11 13 15 12 14 15 13 14 12 11 12 9 8 12 12 9 7 7 8 10 12 14 13 13 14 13 10 10 10 12 13 13 13 13 14 13 9 10 12 12 13 15 12 11 14 15 15 15 14 14 15 14 13 15 14 14
9 8 8 8 7 7 6 5 6 3 2 6 12 11 10 8 6 6 4 4 4 10 14 16 15 12 13 14 15 17 10 6 15 16 12 11 14 13 14 17 14 11 12 13 11 9 10 12 10 9 11 13 14 14 13 14 14 12 9 8 10 12 12 13 13 14 14 14 14 13 13 13 12 14 12 9 12 13 14 14 13 12 13 14 13 13 13 14
11 9 9 9 8 7 7 6 6 7 8 9 10 10 9 7 7 5 4 3 4 10 12 16 16 12 13 13 16 20 13 8 14 15 12 13 14 15 14 14 13 13 10 12 14 10 9 11 10 8 11 13 13 12 10 12 13 12 11 9 11 13 13 12 11 13 13 12 14 14 12 10 9 12 13 12 14 14 13 13 13 13 12 12 13 12 11 10
12 11 10 9 9 8 7 8 7 8 10 9 8 8 7 7 6 6 5 4 6 9 10 13 15 13 15 15 16 19 17 12 11 10 12 13 14 17 17 14 13 12 10 9 13 13 9 10 10 10 11 12 13 11 7 9 10 10 11 11 12 14 14 12 11 12 11 9 13 16 16 13 8 10 12 10 14 15 12 12 12 12 11 10 11 12 10 9
14 13 12 10 10 8 8 9 8 7 9 9 8 7 6 7 6 6 6 5 7 9 11 11 13 15 17 18 17 18 18 16 13 10 12 13 14 15 15 15 13 11 11 12 13 14 12 11 12 12 12 12 14 13 9 9 11 10 11 11 12 12 11 10 11 12 8 7 12 15 15 14 11 9 7 3 8 11 10 12 14 11 10 10 10 10 8 9
17 16 14 12 11 10 9 10 8 7 8 7 7 7 6 7 10 12 11 8 6 8 12 11 11 14 17 18 17 16 17 18 17 15 14 13 14 15 14 14 12 10 12 13 12 13 15 15 13 10 10 11 11 12 12 11 12 12 12 13 11 7 7 7 7 8 7 8 11 10 8 10 11 10 9 5 6 9 7 10 15 13 11 11 9 8 7 7
19 18 16 14 13 11 11 11 10 9 8 7 7 7 7 8 11 14 15 11 5 5 8 10 11 14 15 17 18 16 15 16 17 16 15 14 14 14 15 13 13 12 10 8 8 11 12 13 13 11 12 11 8 11 13 10 10 10 11 11 8 5 5 5 5 6 7 8 10 7 4 6 8 6 6 6 7 11 9 8 12 13 13 13 8 6 6 5
20 19 19 17 15 13 11 11 11 10 9 8 8 8 10 13 13 14 14 13 11 7 7 9 12 13 15 18 16 16 16 15 15 15 15 16 16 15 15 14 14 13 9 7 8 9 10 10 11 12 11 9 8 11 12 10 9 10 11 10 9 9 7 5 4 5 5 6 8 6 2 4 5 1 4 8 9 10 10 9 12 12 13 13 10 7 6 8
18 19 20 19 17 15 13 12 12 12 11 9 9 10 14 15 15 15 14 13 14 11 9 10 12 12 15 17 14 14 17 14 13 16 15 16 17 15 15 15 14 13 11 11 9 8 11 11 10 12 9 6 6 8 9 11 10 8 9 9 10 11 11 10 9 9 8 7 7 7 6 5 4 1 6 10 8 8 9 10 12 11 10 10 11 10 10 12
17 18 19 19 18 16 14 13 12 13 12 11 10 14 18 17 14 15 14 12 11 12 12 12 13 14 14 14 13 14 17 14 12 14 16 16 17 17 16 14 12 12 12 11 7 6 9 9 5 8 9 9 10 9 7 8 8 6 7 9 7 8 12 12 11 10 10 7 6 9 12 9 5 5 8 10 9 9 11 10 10 11 11 11 11 13 15 16
16 17 17 17 16 15 15 13 12 13 13 12 14 17 18 17 16 17 15 13 10 9 12 13 12 14 14 13 14 13 14 14 13 14 15 15 16 15 14 12 10 10 8 8 8 5 6 9 6 6 10 11 10 9 10 10 10 9 9 7 5 6 10 10 7 7 7 6 6 9 12 12 9 7 10 12 11 12 12 10 11 13 12 11 11 14 15 14
16 15 16 13 10 13 14 12 12 14 13 14 17 19 19 18 17 17 15 13 11 10 12 14 12 11 12 12 14 13 13 14 14 15 15 14 13 12 11 10 11 10 8 7 8 6 6 10 10 10 13 12 9 9 11 12 13 14 13 9 8 7 7 8 7 6 5 5 5 8 11 13 11 6 8 13 13 13 12 11 13 13 11 12 13 14 13 11
14 14 14 8 9 15 15 12 12 14 15 17 19 19 18 19 17 16 15 13 12 13 14 15 13 12 12 13 13 14 15 16 15 15 16 14 10 9 10 10 8 8 8 8 9 8 7 8 9 11 13 12 9 8 8 10 12 14 14 12 11 10 8 9 9 7 7 6 5 6 8 7 5 4 6 12 12 12 12 12 13 12 13 14 14 13 12 12
14 13 10 5 12 16 14 11 14 16 17 19 20 19 17 17 17 16 15 13 11 14 15 14 14 14 14 15 15 14 14 14 14 14 14 11 8 8 10 11 10 8 6 7 10 9 7 8 10 11 12 12 11 10 9 10 10 9 12 12 10 10 10 11 12 11 10 7 4 5 6 2 3 2 3 8 9 11 12 13 12 13 17 17 13 11 11 13
13 11 8 10 16 15 11 12 16 17 19 20 20 19 18 18 17 14 12 12 13 14 15 13 13 13 12 13 15 15 14 13 13 13 12 11 10 11 11 11 11 9 5 4 6 8 8 8 11 12 13 14 14 11 10 11 10 8 9 10 8 8 9 9 9 10 11 9 7 7 6 1 5 7 5 4 5 8 12 14 13 15 20 19 15 12 12 14
11 8 9 14 15 14 13 14 15 16 18 20 19 18 18 18 17 14 12 11 12 13 13 13 13 12 11 11 12 13 14 14 14 14 14 12 9 9 11 12 10 9 8 6 5 7 9 9 11 13 13 14 15 15 14 12 12 12 13 13 12 11 11 10 8 8 11 12 11 10 7 0 3 4 4 3 4 5 9 14 13 15 19 18 16 14 14 14
8 6 11 15 14 14 14 14 15 17 18 19 18 18 19 18 16 15 16 14 12 12 11 12 12 11 12 11 11 12 12 14 14 14 15 12 6 5 7 9 9 7 8 8 7 9 10 10 12 14 15 16 17 19 19 14 13 14 13 14 16 16 15 15 13 13 13 13 12 10 6 1 2 1 1 3 4 3 7 12 12 14 18 17 17 17 15 14
11 9 11 13 14 15 16 15 15 17 18 18 18 19 19 18 16 15 15 14 13 13 12 11 10 10 11 10 11 12 11 12 13 13 15 11 6 5 5 6 7 5 5 8 10 10 8 6 10 12 12 13 12 13 15 14 13 13 10 10 12 14 16 18 16 14 13 13 12 10 7 2 1 2 1 4 5 5 8 10 10 13 17 19 21 20 16 14
10 9 9 11 15 14 14 16 15 15 16 16 17 18 18 17 16 15 14 13 12 12 11 10 9 9 9 9 10 11 10 11 11 11 13 11 8 8 7 6 7 7 9 13 13 11 7 5 8 10 7 7 8 7 5 6 8 9 10 10 10 12 14 13 12 11 11 11 11 12 10 5 2 3 4 3 5 7 8 9 10 11 12 14 17 19 17 15
6 4 5 10 13 13 12 14 15 16 16 15 13 14 15 16 15 14 14 14 12 11 11 11 10 9 9 9 10 10 10 11 11 11 12 12 11 10 8 6 6 10 16 17 16 14 10 9 12 13 13 13 14 14 13 13 13 13 13 13 13 14 14 11 10 12 12 12 13 14 12 10 7 6 6 2 4 5 7 9 11 11 10 11 14 17 16 16
3 3 7 10 12 9 10 11 13 14 14 14 14 13 13 14 14 13 12 11 10 12 12 12 12 11 10 10 11 11 11 12 13 14 14 14 12 9 8 6 6 13 16 14 15 16 13 13 14 15 18 20 20 21 21 19 19 18 18 18 18 17 16 14 14 15 14 13 14 14 12 14 15 12 8 5 4 6 7 7 9 10 10 11 14 16 16 17
4 2 6 11 11 6 6 8 10 9 9 9 11 12 11 11 12 12 10 8 7 10 11 11 12 12 12 11 11 13 13 13 14 14 14 13 12 10 9 6 6 12 11 7 11 13 11 14 15 15 18 20 20 21 20 20 21 21 21 23 22 20 19 20 20 20 20 19 20 18 16 19 22 18 14 13 11 10 11 11 12 13 11 13 16 14 12 14
8 5 5 11 12 6 7 11 10 6 6 7 7 8 8 9 10 11 11 8 6 7 8 9 10 11 12 12 12 11 11 10 10 11 11 11 11 10 10 7 6 8 7 4 7 10 11 12 12 14 17 19 19 19 19 19 21 21 23 24 22 21 22 23 24 24 24 25 26 25 24 26 25 22 20 19 18 16 15 13 14 15 13 15 19 15 12 12
5 6 5 8 10 5 8 10 9 7 8 9 9 7 7 7 8 8 8 7 6 6 7 7 9 10 11 12 11 9 9 10 9 10 11 11 10 9 9 8 7 8 8 6 7 11 13 11 8 10 15 17 17 17 18 18 19 21 23 22 22 22 23 25 26 24 23 25 25 25 26 27 24 20 20 20 19 19 19 17 16 17 17 18 20 18 15 15
1 2 2 5 5 2 6 6 6 7 7 5 5 4 5 5 5 6 7 6 4 5 6 7 9 9 7 7 9 9 12 14 11 11 13 11 10 8 7 7 8 9 11 10 9 12 13 10 8 10 13 16 15 15 17 19 20 24 25 23 24 24 23 24 25 24 24 24 23 23 26 25 21 18 19 19 18 18 19 19 19 20 20 22 24 23 21 21
5 3 1 3 3 3 5 6 5 6 4 1 2 2 3 5 5 6 7 6 4 6 7 7 8 7 7 8 11 14 17 18 16 15 16 14 12 10 10 10 10 10 11 10 10 11 11 11 11 11 14 16 14 14 17 18 18 19 20 20 20 19 19 20 22 23 23 23 23 24 24 23 19 17 16 16 16 15 11 11 16 20 19 19 22 22 22 24
Wind_Direction
281 279 277 276 275 274 274 274 275 275 276 274 276 278 281 285 288 294 295 296 295 293 292 287 284 280 276 272 269 264 263 262 260 259 256 254 254 252 248 245 244 240 237 231 228 225 220 221 218 219 218 217 225 216 207 222 224 227 239 241 244 247 249 253 249 257 265 240 258 355 196 215 257 278 284 274 277 255 240 243 244 240 238 239 237 221 216 218
281 279 277 276 274 274 273 272 272 272 272 271 271 272 278 283 288 293 294 295 294 293 290 284 282 275 274 272 268 268 267 265 262 259 254 252 251 248 248 246 243 237 233 226 219 214 210 211 218 215 213 218 232 234 223 227 226 223 233 239 243 247 249 252 251 259 282 254 287 359 348 268 264 269 280 275 273 264 245 228 240 243 233 234 236 219 208 214
282 281 278 276 275 273 271 270 269 269 268 267 266 269 274 280 286 290 292 294 292 292 288 283 280 274 275 272 273 276 272 274 268 260 253 250 249 247 246 243 239 233 224 212 202 197 186 185 233 232 220 223 229 235 232 227 227 227 233 240 243 245 253 259 260 265 283 282 286 306 293 277 276 275 273 271 267 260 248 227 232 237 227 228 234 220 207 213
282 281 278 276 274 271 270 267 266 265 264 262 261 265 270 276 282 285 287 289 288 288 284 281 277 274 274 274 279 274 291 306 274 259 256 251 251 247 242 239 235 227 215 209 201 183 169 179 223 237 229 229 231 231 228 224 227 232 233 239 244 249 261 270 273 271 271 272 272 275 278 277 280 276 263 273 270 255 249 236 231 236 237 231 228 225 222 218
282 279 277 274 271 269 266 263 262 259 258 256 257 260 264 271 274 279 284 283 284 283 282 280 274 273 271 270 261 234 68 25 267 259 272 257 249 245 239 233 225 217 207 208 204 181 177 200 213 224 228 228 232 230 227 227 231 236 237 242 249 256 267 276 280 274 262 252 253 260 268 275 274 267 267 271 262 250 251 247 233 235 243 238 229 231 227 218
284 279 273 270 268 266 261 258 256 253 253 250 252 256 260 266 268 274 276 278 282 281 282 280 273 269 263 256 222 197 137 144 266 273 286 266 252 248 237 225 217 214 203 199 196 181 185 202 206 215 224 227 232 234 232 231 233 239 244 248 252 260 265 266 267 268 263 248 250 258 261 267 265 264 267 259 252 251 249 246 233 229 233 231 232 232 225 217
291 281 273 268 264 261 257 252 249 247 247 246 249 252 256 261 264 267 269 275 279 281 286 281 272 258 252 236 209 205 193 236 271 277 284 286 267 248 232 218 211 206 200 194 179 174 193 194 204 217 223 231 235 237 237 237 238 239 243 248 252 260 262 255 258 263 263 259 258 257 251 252 258 266 267 252 247 246 244 239 230 230 223 221 229 226 224 219
308 291 278 269 260 256 251 246 244 242 243 245 248 250 255 257 258 263 264 271 276 285 290 280 269 244 238 213 203 220 239 257 277 282 286 293 271 244 222 211 205 196 193 193 165 161 207 200 213 220 222 233 239 243 242 242 241 237 241 251 255 257 259 253 254 259 258 259 261 253 247 249 254 261 258 249 244 230 238 237 223 223 218 218 226 227 227 222
330 314 293 273 259 251 245 244 241 241 243 244 247 250 253 254 256 258 259 267 272 279 286 279 261 232 216 181 165 73 273 273 295 298 297 295 267 239 218 202 194 192 183 178 156 170 214 211 221 223 230 241 248 254 245 238 237 237 247 254 255 254 255 255 256 258 255 251 253 248 245 249 250 251 251 247 237 210 230 240 221 220 227 228 230 232 227 219
339 332 314 287 263 248 241 242 240 243 244 244 248 249 251 251 252 253 254 261 263 267 275 266 245 219 187 157 124 63 279 281 297 292 293 296 260 226 216 191 182 189 171 159 171 195 211 215 231 235 246 248 251 260 243 234 238 245 258 254 252 253 252 254 256 253 248 244 246 244 243 248 242 241 246 232 208 192 224 235 217 223 237 237 233 230 224 216
332 334 329 310 279 254 241 241 243 244 245 248 248 247 250 247 248 250 251 255 257 258 254 250 236 204 182 166 149 100 283 282 289 286 287 279 243 206 200 183 177 171 148 168 208 200 204 223 246 233 236 243 246 262 249 238 242 251 264 256 251 254 252 251 250 246 242 243 242 235 241 245 230 234 242 218 198 197 225 236 232 232 233 233 234 231 228 218
319 324 328 323 301 270 248 243 244 246 247 250 249 250 250 246 248 249 249 254 251 245 238 241 227 204 196 196 210 244 285 279 279 293 277 251 219 178 186 180 169 148 132 211 225 211 212 222 234 220 225 247 246 266 255 236 240 252 258 259 258 257 255 247 242 239 238 243 234 223 239 237 224 237 233 206 199 195 212 227 240 244 233 228 229 223 224 216
309 312 318 320 313 292 264 249 245 246 247 247 248 249 247 247 249 248 251 251 244 239 227 226 220 208 196 209 250 263 277 274 269 274 248 234 180 145 160 172 168 157 165 208 241 245 228 222 219 216 238 249 241 268 266 230 240 253 249 257 260 256 252 240 230 229 236 243 219 206 234 229 222 233 212 191 197 197 210 214 219 248 240 216 215 210 211 210
301 302 306 311 310 302 286 263 250 246 246 245 246 245 245 245 244 247 249 244 242 231 219 219 210 203 191 214 280 276 263 270 259 245 227 204 155 131 129 155 167 167 175 181 204 237 228 222 213 209 229 236 240 269 271 241 245 253 246 249 249 255 254 228 206 211 229 229 192 198 236 234 223 213 193 189 202 198 217 215 193 224 238 210 211 211 210 211
298 296 298 303 306 305 297 279 263 252 247 245 243 242 241 241 242 248 246 241 239 224 218 214 202 203 207 263 285 282 254 259 242 214 199 169 126 121 136 142 153 155 170 173 182 225 220 206 202 207 231 244 251 264 261 241 238 241 242 240 236 252 249 189 181 200 222 202 181 208 241 247 235 199 179 182 204 204 221 217 187 208 232 216 213 215 215 219
303 299 299 299 301 305 298 288 279 267 257 251 248 246 243 241 240 241 243 241 234 224 214 206 205 198 168 278 270 275 262 238 226 195 182 133 88 61 150 123 135 142 159 179 184 211 205 187 201 223 246 253 247 247 253 245 233 226 237 243 240 247 221 167 182 200 220 205 189 214 234 247 229 183 178 186 206 210 217 232 217 212 213 207 219 221 220 219
325 316 311 305 303 304 299 294 286 279 277 268 265 263 254 247 242 239 242 239 226 221 207 202 209 205 213 265 261 279 278 224 211 188 176 125 111 258 251 127 138 162 143 175 179 174 185 198 218 233 244 243 238 241 249 249 235 220 227 240 247 251 223 181 186 190 215 218 200 215 231 239 184 159 179 192 215 224 213 232 232 200 195 215 233 225 225 226
346 338 336 327 318 310 301 298 289 288 293 290 292 281 280 277 256 243 237 234 221 202 194 201 196 207 261 285 274 280 257 211 203 185 182 141 148 209 228 166 179 204 182 229 242 210 208 221 235 244 243 235 233 236 238 249 268 277 261 242 241 255 242 218 201 189 199 217 213 220 230 232 196 177 199 204 224 232 219 221 216 214 231 243 237 215 219 232
338 339 343 343 340 333 320 310 297 296 298 295 287 138 51 12 338 299 252 235 221 183 159 237 216 180 322 315 158 209 207 210 212 186 189 171 163 184 195 179 201 214 215 230 235 239 227 229 239 240 237 233 233 235 242 283 325 328 311 263 240 249 245 233 201 169 177 206 214 220 225 226 218 203 201 203 216 221 221 219 214 229 240 244 242 224 225 232
317 321 328 336 340 346 346 337 327 318 298 278 155 127 58 11 359 338 283 238 222 189 152 264 237 185 7 297 168 187 206 219 216 191 197 198 172 176 194 197 213 221 223 226 226 229 231 240 245 238 238 245 236 235 269 305 315 315 312 290 252 240 238 223 197 178 192 218 217 227 235 230 228 222 210 211 222 222 230 227 218 231 239 244 245 225 223 234
302 305 313 319 325 335 346 350 351 349 338 132 149 144 50 355 328 296 279 250 232 211 187 203 232 218 226 209 194 208 225 232 213 197 205 207 177 183 206 205 207 220 227 227 226 228 236 248 249 240 242 249 244 244 255 265 282 303 302 295 279 256 241 193 170 173 187 222 236 243 250 239 228 229 229 233 236 226 230 232 226 230 236 243 242 222 217 232
292 295 301 304 313 317 323 338 347 4 20 96 172 172 29 327 253 248 271 261 240 231 227 225 223 231 228 205 209 221 217 219 216 202 205 210 195 197 209 211 214 220 225 223 226 239 240 244 248 244 241 246 253 256 256 261 275 289 282 275 277 269 244 175 159 173 171 219 240 239 249 251 240 233 237 242 239 236 234 235 239 236 233 235 242 239 229 227
289 291 291 294 300 300 306 318 327 352 352 5 219 237 289 280 243 256 272 259 238 232 236 233 225 229 227 215 223 223 209 215 220 206 208 214 205 200 205 217 226 227 229 222 221 239 242 244 249 236 235 253 275 277 274 273 274 276 267 261 263 262 253 225 183 199 237 245 241 250 266 275 272 244 239 244 240 238 236 237 243 242 238 236 238 246 242 235
291 290 287 289 288 292 298 295 303 322 324 318 272 273 294 276 260 278 280 266 259 243 230 230 227 226 222 218 230 232 215 215 218 206 213 223 204 200 212 224 236 242 240 228 223 243 253 254 248 230 235 255 280 281 274 268 263 258 252 253 258 259 263 264 206 169 253 265 252 257 270 272 268 243 235 243 235 228 232 240 244 239 237 235 233 248 254 250
289 289 288 286 283 288 286 286 296 293 299 329 296 283 297 283 275 285 287 278 277 263 226 221 224 222 216 210 220 224 211 221 232 213 221 242 208 200 217 228 238 243 238 237 233 240 252 247 225 237 251 255 261 264 258 252 257 259 249 247 257 265 276 279 279 275 265 264 247 238 253 255 245 236 236 240 231 223 230 237 238 234 234 229 223 242 256 259
286 285 286 285 282 284 281 290 292 273 3 354 318 289 283 280 279 286 286 280 277 256 213 213 217 214 205 203 208 203 211 230 232 214 224 240 209 208 230 231 237 242 241 261 245 232 248 251 222 254 261 253 257 259 254 246 251 261 257 250 252 259 271 271 269 266 254 264 249 214 235 260 249 249 250 242 228 219 224 231 233 232 231 226 218 225 239 252
278 278 282 283 283 286 284 290 283 247 51 346 276 268 280 274 282 294 291 286 268 223 201 207 216 218 205 206 205 193 215 222 197 208 226 222 204 216 235 227 229 239 237 264 260 231 240 242 238 260 257 256 259 254 248 240 241 254 263 265 259 255 259 258 258 257 254 269 268 219 236 261 258 259 264 246 224 214 218 226 231 229 225 222 218 217 221 236
274 271 275 277 279 285 282 284 275 218 167 247 241 250 271 269 281 295 299 301 243 188 196 203 208 218 205 206 206 198 213 199 187 209 225 215 207 210 232 234 237 255 243 238 246 242 235 236 249 263 253 253 255 250 246 238 235 248 268 276 263 257 261 259 254 254 256 266 263 242 242 254 254 257 256 234 220 217 216 219 221 222 221 218 216 220 223 227
276 269 268 271 272 279 277 277 273 245 244 253 246 247 258 266 278 277 269 277 213 190 203 209 209 206 192 198 206 207 218 211 205 217 214 215 212 202 222 235 238 268 263 227 235 249 245 243 250 258 250 247 248 245 242 241 242 249 262 277 270 262 261 260 258 260 262 262 262 258 253 253 256 257 249 223 215 220 222 218 214 214 214 213 211 212 213 206
279 273 268 267 266 272 273 269 265 255 261 265 256 253 255 259 264 262 249 237 231 216 205 215 221 206 194 201 207 210 218 218 216 213 200 212 219 209 217 220 225 262 269 236 242 248 246 239 234 249 252 243 249 254 238 235 246 251 256 267 269 257 252 256 258 261 265 260 257 257 250 250 257 258 255 230 207 212 221 214 200 200 205 206 207 206 211 219
278 276 273 269 265 265 263 264 260 250 258 261 254 250 249 254 253 247 236 240 256 226 198 214 223 205 201 208 209 208 214 218 216 208 204 214 220 217 220 222 227 254 255 246 246 243 246 238 228 245 252 245 256 265 261 249 248 254 256 262 268 256 246 254 251 248 255 254 257 259 251 247 249 249 253 221 186 195 209 203 188 185 193 194 193 193 206 223
273 274 275 273 267 261 256 262 264 255 256 259 249 235 238 256 245 236 241 259 271 209 199 217 216 204 206 212 214 208 210 219 217 215 220 218 211 211 220 225 221 233 244 244 241 242 254 253 242 244 239 236 251 257 256 248 241 247 250 250 262 262 247 251 247 244 248 249 258 274 275 251 243 242 239 228 202 194 185 189 188 184 190 191 179 182 204 216
269 269 272 272 270 264 255 257 260 255 254 253 238 220 229 249 242 240 248 252 246 207 221 231 214 208 211 214 216 209 211 223 220 218 221 216 212 212 222 229 219 222 243 253 248 247 253 257 257 250 227 217 237 250 247 238 226 235 243 241 244 250 248 246 249 252 250 256 262 274 305 265 248 249 235 214 190 182 170 163 170 176 192 198 182 184 208 198
268 266 266 265 266 265 256 252 252 248 247 243 227 216 231 244 248 255 258 250 248 257 264 245 221 214 217 219 217 207 213 225 219 219 219 214 219 219 222 231 225 225 241 250 248 248 246 249 247 237 217 200 224 248 256 265 258 242 242 240 235 243 258 261 263 269 273 289 279 257 249 258 248 177 154 162 152 164 177 181 182 190 207 206 190 180 188 198
270 265 263 261 263 265 258 250 245 243 244 233 221 228 235 241 250 253 255 255 253 252 259 253 235 227 224 225 225 214 218 226 214 216 223 218 224 226 221 228 230 231 239 242 240 237 246 257 242 224 211 201 238 255 263 277 278 260 247 241 227 230 244 253 264 281 294 302 285 251 242 253 261 211 169 172 174 181 183 187 195 199 200 191 182 184 201 224
273 267 263 260 259 260 257 252 244 240 237 224 224 239 239 240 248 250 256 270 264 251 254 252 239 240 238 230 233 224 216 222 218 220 230 227 227 228 220 220 224 222 229 245 257 245 251 267 240 208 220 233 247 259 257 260 272 279 264 255 248 241 245 254 265 274 274 270 262 251 248 247 250 236 203 194 202 196 183 183 186 183 178 173 179 201 223 241
274 271 265 261 260 261 256 246 239 236 231 224 234 244 244 246 252 256 266 278 274 259 257 255 242 241 241 229 232 231 214 217 223 228 235 232 230 230 218 209 207 207 227 258 269 259 256 268 251 217 240 241 232 246 259 260 266 269 261 259 266 255 249 253 265 268 261 257 255 252 248 244 245 232 203 202 205 191 187 192 181 174 175 177 194 221 239 246
275 273 267 261 253 256 252 235 230 234 229 233 243 247 251 255 255 260 271 272 263 258 256 257 251 242 245 236 230 229 221 220 225 229 235 230 227 227 216 207 204 214 240 259 260 259 255 266 262 245 256 254 219 229 260 262 255 253 259 273 277 269 256 244 247 260 264 266 262 260 262 260 261 252 197 194 201 197 199 203 188 180 179 189 212 236 247 242
272 270 276 267 216 232 244 235 230 231 229 237 245 249 253 257 255 258 268 267 259 259 259 258 253 245 247 246 239 233 229 227 225 231 236 230 222 217 215 220 219 226 239 239 251 269 263 268 269 253 265 268 230 224 262 270 257 243 244 259 268 270 265 253 252 261 263 269 273 269 274 274 274 279 221 199 203 210 210 205 196 190 187 198 225 243 242 242
265 266 279 246 213 233 247 238 229 226 229 237 242 247 255 260 261 260 260 258 254 257 262 263 260 256 249 243 245 245 241 237 232 235 240 232 230 240 234 232 229 227 237 235 247 268 265 263 270 264 274 275 249 239 261 279 281 258 241 244 255 260 260 259 258 259 260 267 281 274 278 314 91 119 190 191 206 223 218 208 200 191 193 208 236 248 239 243
255 258 256 232 234 250 257 240 230 227 233 239 243 248 254 258 264 266 258 255 255 256 261 264 267 271 263 247 245 247 248 248 242 244 252 242 238 244 232 221 222 224 234 242 250 264 257 254 265 266 267 266 258 252 260 272 282 287 274 264 268 276 272 268 260 262 273 280 284 281 282 330 135 162 171 183 235 241 218 206 200 196 203 221 245 248 240 245
244 252 246 238 245 257 254 243 236 232 235 241 244 248 252 257 261 261 256 258 263 259 258 260 263 268 266 254 249 248 247 250 247 246 253 251 246 236 210 198 205 215 231 252 276 272 254 248 262 266 263 264 265 262 266 271 265 269 274 269 274 281 274 272 272 277 287 288 289 290 286 188 141 188 208 230 267 258 215 202 198 204 214 231 253 255 245 246
215 238 255 251 252 253 248 241 237 236 239 244 249 249 251 257 261 258 254 257 263 259 253 255 256 258 259 256 256 253 245 249 252 249 251 250 237 217 194 187 197 212 241 256 272 275 263 252 258 267 272 275 273 265 263 264 252 253 265 267 270 272 266 268 275 282 285 281 286 291 280 174 117 169 246 252 261 246 205 195 192 206 221 238 260 264 254 253
206 216 244 262 268 254 239 235 238 241 244 248 252 253 253 254 254 255 253 252 255 254 253 257 257 260 263 258 258 257 251 252 252 250 253 248 223 202 182 195 220 239 264 246 237 252 262 250 251 262 274 277 270 255 251 254 245 243 260 274 275 276 271 267 270 279 281 275 277 279 275 276 153 179 274 274 251 222 212 211 209 216 228 244 261 264 257 257
218 213 221 253 274 270 245 233 238 248 254 257 256 255 255 250 245 249 256 257 255 253 254 258 259 265 268 262 259 256 253 255 255 253 249 244 246 249 239 249 258 249 246 240 234 240 250 251 255 261 270 270 266 262 279 305 287 265 271 277 279 292 291 276 267 271 272 274 277 270 274 292 248 252 306 282 228 222 228 227 219 215 222 238 254 258 256 259
207 225 239 235 250 269 261 239 240 253 262 266 265 259 255 249 245 249 254 258 257 254 257 260 260 267 268 263 265 264 259 258 257 257 248 244 260 264 241 238 251 245 247 245 237 238 247 255 257 260 264 267 274 284 300 315 306 286 278 273 269 281 292 286 270 266 271 284 283 272 281 299 294 304 324 283 212 234 241 228 217 215 216 218 231 248 257 262
177 266 276 237 222 243 258 242 240 253 261 261 260 258 256 253 250 247 248 256 257 253 258 260 258 262 261 259 268 269 266 264 258 255 253 249 253 253 232 220 243 261 265 256 240 241 249 253 253 256 260 264 271 279 286 292 289 283 280 277 272 274 282 280 269 266 272 278 273 271 289 302 301 311 325 316 285 268 258 243 226 225 228 221 224 242 256 263
180 199 263 246 227 231 266 246 232 248 268 264 256 257 258 255 251 246 249 265 269 256 259 263 258 257 258 258 264 266 264 268 265 260 260 255 249 252 253 244 256 271 277 265 244 242 244 252 255 257 261 265 268 273 277 279 278 278 277 278 278 278 278 275 270 271 275 275 273 277 285 288 290 295 298 298 296 281 272 262 244 240 242 236 233 233 238 251
212 209 246 239 220 221 273 254 234 250 282 275 264 261 260 262 260 253 249 259 276 267 259 265 264 261 262 261 264 271 267 262 263 259 253 247 245 257 267 259 255 270 281 276 246 236 239 253 261 264 268 270 268 271 276 277 277 278 276 276 277 274 271 272 273 272 271 272 275 278 279 278 280 285 286 285 284 278 274 267 254 248 242 239 242 235 220 228
231 238 250 221 206 232 290 271 255 274 283 273 274 270 263 270 270 257 248 252 286 298 278 281 287 276 268 263 262 270 259 245 249 248 241 239 242 259 273 267 261 266 271 271 253 242 246 254 267 277 279 277 273 274 277 277 278 279 276 276 277 274 271 273 276 274 268 269 272 275 278 279 280 284 284 282 282 278 270 261 255 253 246 243 247 244 231 230
13 272 209 182 188 293 336 313 280 282 277 269 282 268 259 286 283 263 255 246 271 311 298 304 303 283 273 267 256 252 246 240 243 245 242 243 246 256 267 267 271 276 269 261 250 245 249 258 276 287 283 280 281 280 278 279 279 277 276 276 277 279 278 270 268 269 268 270 272 274 278 283 285 286 284 280 280 278 271 264 260 259 255 251 251 250 246 240
40 37 151 163 101 32 347 328 305 286 272 253 339 302 273 292 288 277 274 258 262 293 290 304 311 291 283 270 253 253 254 250 249 247 243 240 241 252 262 260 266 273 267 257 248 247 251 260 270 280 281 281 283 284 287 291 284 276 275 274 270 274 281 275 268 267 267 268 270 272 275 280 281 280 280 281 277 268 261 265 266 261 252 246 248 251 251 248
Height
3094 3094 3094 3094 3094 3094 3094 3094 3094 3094 3094 3094 3094 3093 3093 3093 3093 3092 3092 3092 3091 3091 3090 3090 3089 3089 3088 3088 3088 3087 3087 3087 3086 3087 3087 3087 3087 3088 3088 3089 3090 3090 3092 3093 3094 3095 3097 3098 3099 3100 3102 3103 3104 3105 3107 3109 3111 3112 3112 3112 3111 3110 3110 3109 3109 3108 3106 3107 3107 3106 3106 3108 3110 3111 3112 3111 3112 3112 3112 3114 3109 3108 3110 3110 3112 3113 3116 3117
3093 3093 3092 3092 3092 3092 3092 3092 3092 3092 3092 3092 3092 3092 3092 3092 3092 3091 3091 3091 3090 3090 3089 3089 3088 3088 3088 3087 3087 3086 3086 3086 3085 3085 3086 3085 3086 3086 3087 3088 3088 3089 3090 3092 3093 3094 3096 3097 3099 3100 3101 3102 3104 3105 3106 3108 3109 3110 3111 3110 3109 3108 3108 3107 3107 3106 3106 3106 3106 3106 3107 3108 3110 3110 3111 3111 3112 3112 3112 3114 3108 3107 3109 3108 3111 3114 3114 3116
3092 3091 3091 3091 3091 3091 3091 3091 3091 3091 3091 3091 3091 3091 3091 3091 3091 3090 3090 3090 3089 3089 3088 3088 3087 3087 3087 3086 3086 3086 3085 3085 3084 3084 3084 3084 3085 3085 3086 3086 3087 3088 3089 3090 3092 3093 3095 3097 3099 3100 3101 3102 3104 3105 3107 3108 3108 3108 3109 3108 3107 3107 3107 3106 3105 3105 3104 3105 3105 3107 3108 3108 3109 3109 3110 3110 3111 3111 3111 3113 3107 3104 3106 3107 3110 3113 3114 3114
3091 3090 3090 3090 3089 3089 3089 3089 3090 3090 3090 3090 3090 3090 3090 3090 3090 3089 3089 3089 3088 3088 3087 3087 3087 3086 3086 3086 3085 3085 3084 3084 3083 3083 3084 3084 3084 3084 3085 3085 3086 3087 3088 3089 3090 3092 3094 3097 3100 3101 3102 3102 3104 3105 3106 3107 3107 3107 3106 3105 3105 3106 3106 3105 3104 3104 3104 3105 3106 3106 3107 3107 3109 3108 3108 3109 3110 3109 3111 3112 3109 3102 3102 3107 3110 3112 3114 3114
3089 3089 3089 3088 3088 3088 3088 3088 3088 3088 3089 3089 3089 3089 3089 3089 3089 3089 3088 3088 3088 3087 3087 3086 3086 3086 3085 3085 3085 3084 3084 3084 3082 3082 3083 3083 3083 3084 3084 3085 3085 3086 3087 3088 3089 3091 3093 3096 3099 3100 3101 3102 3103 3105 3105 3106 3106 3106 3105 3104 3104 3104 3105 3105 3104 3104 3104 3104 3104 3105 3106 3106 3108 3108 3107 3109 3108 3109 3109 3107 3107 3101 3097 3105 3110 3112 3113 3113
3088 3088 3087 3087 3087 3087 3087 3087 3087 3087 3087 3088 3088 3088 3088 3088 3088 3088 3088 3087 3087 3086 3086 3086 3085 3085 3085 3084 3084 3084 3084 3084 3082 3082 3083 3083 3083 3083 3084 3084 3085 3086 3086 3088 3089 3090 3093 3095 3097 3099 3100 3101 3102 3104 3104 3105 3105 3104 3103 3104 3104 3103 3103 3103 3104 3103 3102 3103 3104 3105 3106 3107 3107 3106 3106 3107 3107 3108 3105 3101 3103 3100 3094 3102 3110 3110 3112 3112
3088 3087 3087 3086 3086 3086 3086 3086 3086 3086 3086 3087 3087 3087 3087 3087 3087 3087 3087 3087 3086 3086 3085 3085 3085 3084 3084 3084 3084 3084 3083 3082 3081 3082 3083 3083 3083 3083 3083 3083 3084 3085 3086 3087 3088 3091 3093 3095 3097 3099 3100 3101 3101 3103 3103 3104 3103 3102 3102 3102 3102 3103 3102 3102 3103 3102 3102 3102 3103 3104 3105 3106 3105 3105 3106 3105 3106 3106 3103 3101 3104 3101 3096 3102 3108 3108 3109 3111
3087 3086 3086 3085 3085 3085 3085 3085 3085 3085 3086 3086 3086 3086 3087 3087 3087 3086 3086 3086 3086 3085 3085 3085 3084 3084 3084 3084 3084 3084 3083 3082 3082 3082 3082 3083 3083 3083 3083 3083 3084 3085 3086 3087 3088 3091 3094 3095 3097 3099 3100 3101 3101 3102 3102 3102 3101 3101 3101 3101 3101 3101 3101 3101 3101 3101 3101 3101 3102 3103 3103 3103 3103 3104 3104 3104 3105 3104 3100 3101 3103 3102 3100 3103 3105 3106 3107 3109
3087 3086 3085 3085 3085 3084 3084 3085 3085 3085 3085 3085 3085 3086 3086 3086 3086 3086 3085 3085 3085 3085 3085 3084 3084 3084 3083 3083 3084 3084 3083 3081 3081 3082 3081 3082 3082 3082 3082 3083 3083 3084 3086 3087 3088 3092 3095 3096 3097 3099 3099 3100 3100 3101 3101 3100 3100 3099 3099 3100 3099 3099 3100 3099 3099 3100 3100 3100 3101 3101 3101 3101 3102 3102 3103 3102 3104 3103 3098 3098 3102 3102 3103 3103 3104 3105 3106 3107
3087 3086 3085 3085 3084 3084 3084 3084 3084 3084 3084 3084 3085 3085 3085 3085 3085 3085 3085 3085 3084 3084 3084 3084 3084 3083 3083 3083 3083 3083 3082 3080 3080 3081 3081 3081 3082 3082 3082 3082 3083 3084 3085 3087 3089 3092 3094 3096 3098 3099 3098 3098 3099 3099 3099 3099 3099 3098 3098 3098 3098 3098 3098 3098 3098 3099 3099 3099 3099 3100 3100 3100 3101 3101 3101 3101 3102 3101 3097 3096 3100 3102 3102 3103 3104 3106 3105 3107
3087 3086 3085 3084 3084 3084 3084 3084 3084 3084 3084 3084 3084 3084 3084 3084 3084 3084 3084 3084 3084 3084 3084 3084 3083 3083 3083 3083 3083 3083 3082 3081 3080 3081 3081 3081 3081 3081 3082 3082 3083 3084 3085 3088 3091 3092 3094 3096 3096 3097 3097 3097 3097 3098 3097 3097 3097 3097 3097 3096 3096 3096 3096 3096 3096 3097 3097 3097 3098 3099 3099 3099 3100 3099 3099 3099 3099 3100 3097 3095 3098 3100 3102 3102 3103 3104 3105 3107
3086 3086 3085 3084 3083 3083 3083 3083 3083 3083 3083 3083 3083 3083 3084 3084 3084 3084 3084 3084 3084 3083 3083 3083 3083 3083 3083 3083 3083 3082 3082 3081 3080 3080 3081 3081 3081 3081 3081 3082 3083 3084 3087 3090 3091 3091 3092 3093 3093 3094 3096 3096 3097 3097 3095 3095 3096 3096 3096 3095 3094 3094 3093 3093 3094 3095 3096 3095 3096 3098 3097 3097 3098 3097 3098 3098 3097 3099 3097 3095 3097 3098 3101 3102 3102 3103 3103 3105
3086 3085 3085 3084 3083 3083 3082 3082 3082 3082 3082 3082 3083 3083 3083 3083 3083 3083 3083 3083 3083 3083 3083 3083 3083 3083 3083 3083 3082 3082 3082 3081 3081 3081 3081 3081 3081 3081 3081 3082 3083 3084 3086 3090 3092 3092 3091 3091 3091 3092 3094 3094 3095 3095 3093 3094 3095 3094 3095 3094 3093 3092 3089 3089 3091 3094 3094 3094 3095 3097 3096 3095 3095 3095 3096 3096 3096 3099 3097 3097 3098 3097 3099 3101 3100 3102 3102 3103
3085 3085 3084 3084 3083 3082 3082 3082 3081 3081 3081 3081 3082 3082 3082 3082 3083 3083 3083 3083 3083 3083 3083 3083 3083 3083 3083 3083 3082 3082 3082 3081 3081 3081 3081 3081 3081 3081 3082 3082 3083 3084 3085 3087 3090 3090 3090 3089 3090 3090 3092 3092 3093 3094 3093 3094 3094 3093 3093 3092 3091 3089 3085 3086 3090 3092 3093 3092 3094 3096 3095 3093 3093 3094 3093 3095 3097 3098 3097 3097 3099 3099 3099 3101 3101 3101 3103 3103
3085 3084 3084 3083 3083 3082 3082 3081 3081 3081 3080 3081 3081 3081 3081 3082 3082 3082 3082 3083 3083 3083 3083 3083 3083 3083 3083 3083 3081 3081 3082 3082 3081 3081 3081 3081 3081 3082 3082 3083 3083 3084 3085 3086 3087 3088 3088 3088 3089 3090 3091 3092 3092 3093 3093 3093 3092 3092 3091 3090 3089 3086 3083 3085 3088 3091 3092 3091 3093 3095 3094 3091 3092 3092 3091 3094 3096 3098 3098 3096 3098 3099 3098 3100 3102 3102 3103 3104
3084 3084 3083 3083 3082 3082 3081 3081 3081 3080 3080 3080 3080 3080 3080 3081 3081 3082 3082 3082 3082 3082 3082 3083 3083 3083 3083 3082 3081 3081 3082 3082 3081 3081 3081 3081 3082 3083 3083 3083 3084 3084 3085 3086 3087 3087 3087 3088 3089 3090 3091 3092 3093 3092 3092 3091 3090 3090 3089 3088 3086 3083 3082 3084 3086 3089 3090 3090 3092 3094 3093 3091 3090 3090 3091 3094 3096 3098 3098 3094 3095 3099 3098 3099 3101 3102 3104 3105
3084 3084 3083 3083 3082 3082 3081 3081 3080 3080 3080 3080 3080 3080 3080 3080 3081 3081 3081 3082 3082 3082 3082 3083 3083 3083 3082 3082 3081 3081 3081 3081 3081 3081 3081 3081 3084 3086 3084 3084 3085 3085 3086 3086 3087 3087 3088 3088 3089 3090 3090 3091 3091 3091 3091 3089 3087 3086 3087 3086 3084 3082 3081 3083 3084 3087 3089 3090 3091 3092 3091 3091 3090 3090 3092 3095 3095 3097 3099 3095 3093 3096 3098 3100 3101 3103 3104 3105
3084 3084 3083 3082 3082 3081 3081 3081 3080 3080 3080 3080 3080 3080 3080 3080 3080 3081 3081 3081 3081 3082 3082 3083 3083 3083 3082 3081 3081 3081 3081 3082 3081 3081 3082 3081 3083 3086 3085 3085 3086 3087 3087 3087 3088 3088 3088 3089 3089 3090 3090 3090 3090 3090 3089 3087 3085 3084 3084 3084 3083 3081 3080 3082 3083 3085 3087 3089 3090 3091 3090 3090 3090 3090 3092 3094 3095 3096 3098 3097 3095 3093 3096 3099 3101 3104 3105 3105
3084 3083 3083 3082 3082 3081 3081 3080 3080 3080 3079 3080 3080 3080 3080 3081 3080 3080 3080 3081 3081 3081 3082 3082 3082 3082 3081 3080 3081 3083 3082 3082 3082 3081 3082 3082 3083 3084 3085 3086 3087 3088 3088 3089 3088 3088 3089 3089 3089 3089 3089 3088 3088 3088 3087 3086 3085 3085 3084 3083 3082 3082 3081 3082 3083 3084 3087 3088 3089 3090 3089 3089 3090 3090 3091 3092 3093 3095 3096 3098 3097 3094 3095 3098 3100 3102 3104 3105
3084 3083 3083 3082 3082 3081 3080 3080 3079 3079 3079 3079 3080 3080 3080 3081 3081 3081 3079 3079 3080 3080 3080 3081 3081 3081 3082 3082 3082 3083 3082 3081 3082 3082 3082 3082 3083 3084 3085 3086 3087 3088 3088 3089 3089 3089 3089 3089 3088 3088 3087 3086 3085 3085 3085 3085 3085 3086 3085 3083 3082 3082 3082 3082 3083 3084 3087 3087 3087 3089 3088 3088 3089 3090 3091 3091 3092 3094 3095 3097 3098 3095 3094 3096 3096 3097 3100 3103
3084 3083 3082 3082 3081 3081 3080 3080 3079 3079 3079 3079 3080 3080 3080 3081 3082 3081 3078 3078 3079 3080 3078 3080 3081 3081 3083 3084 3083 3081 3081 3081 3081 3082 3082 3082 3082 3084 3085 3085 3087 3088 3087 3088 3089 3088 3089 3088 3086 3086 3086 3085 3084 3084 3084 3085 3086 3087 3086 3085 3083 3083 3082 3082 3083 3085 3087 3087 3088 3088 3088 3088 3089 3090 3090 3091 3092 3093 3094 3096 3098 3098 3097 3097 3097 3094 3096 3100
3083 3082 3082 3082 3081 3081 3081 3080 3080 3079 3079 3079 3079 3079 3080 3080 3080 3079 3078 3077 3078 3078 3078 3079 3081 3081 3082 3083 3082 3081 3082 3081 3081 3082 3082 3082 3082 3084 3085 3085 3086 3087 3087 3088 3088 3088 3087 3086 3085 3085 3084 3084 3084 3084 3085 3085 3086 3087 3087 3086 3085 3084 3082 3081 3083 3086 3087 3087 3088 3089 3088 3087 3088 3088 3089 3090 3092 3092 3093 3095 3096 3098 3098 3100 3100 3096 3095 3099
3082 3082 3082 3081 3081 3081 3080 3080 3080 3080 3080 3079 3079 3079 3079 3079 3079 3078 3077 3076 3076 3077 3077 3078 3079 3080 3080 3081 3081 3080 3081 3081 3081 3081 3081 3081 3082 3083 3084 3085 3085 3086 3086 3086 3087 3087 3085 3084 3083 3084 3083 3083 3084 3085 3085 3085 3086 3086 3087 3087 3086 3084 3083 3082 3083 3085 3086 3087 3088 3088 3088 3087 3086 3087 3088 3090 3091 3091 3092 3094 3095 3096 3097 3099 3099 3096 3095 3098
3082 3081 3081 3081 3081 3080 3080 3080 3080 3080 3080 3080 3080 3079 3079 3079 3078 3078 3077 3076 3075 3075 3076 3077 3077 3078 3078 3079 3080 3079 3079 3081 3081 3081 3080 3080 3082 3083 3083 3084 3085 3085 3084 3084 3085 3085 3084 3083 3082 3082 3082 3083 3084 3085 3085 3086 3086 3086 3087 3086 3085 3084 3083 3083 3082 3083 3085 3087 3088 3089 3088 3086 3086 3087 3088 3089 3089 3089 3091 3093 3094 3095 3095 3098 3098 3095 3094 3097
3081 3081 3081 3080 3080 3080 3080 3080 3080 3080 3080 3080 3080 3079 3079 3079 3078 3077 3076 3075 3074 3073 3074 3075 3075 3076 3077 3078 3078 3078 3079 3079 3080 3079 3077 3078 3081 3082 3083 3084 3083 3083 3083 3083 3083 3083 3082 3082 3081 3082 3082 3084 3084 3085 3086 3086 3086 3085 3085 3085 3085 3083 3083 3083 3083 3083 3085 3086 3086 3088 3087 3085 3085 3086 3087 3088 3088 3088 3090 3092 3093 3094 3094 3096 3098 3094 3092 3094
3081 3080 3080 3080 3080 3079 3079 3079 3080 3080 3080 3080 3080 3079 3079 3078 3078 3077 3076 3076 3074 3073 3073 3073 3073 3074 3075 3077 3077 3078 3079 3078 3079 3077 3075 3077 3080 3081 3082 3083 3082 3081 3082 3082 3081 3081 3081 3080 3081 3082 3082 3083 3084 3084 3085 3085 3085 3084 3083 3083 3084 3084 3084 3084 3084 3084 3085 3084 3084 3086 3086 3084 3083 3084 3084 3084 3085 3087 3089 3091 3091 3093 3094 3095 3097 3096 3093 3092
3080 3080 3079 3079 3079 3079 3079 3079 3079 3079 3080 3082 3081 3080 3079 3078 3078 3077 3077 3076 3073 3071 3071 3071 3072 3072 3074 3075 3076 3078 3077 3076 3078 3076 3075 3078 3079 3080 3080 3080 3081 3080 3080 3080 3078 3079 3080 3079 3080 3081 3082 3083 3083 3083 3083 3083 3084 3082 3082 3083 3083 3083 3084 3084 3084 3084 3083 3084 3083 3085 3086 3084 3083 3083 3083 3083 3083 3085 3088 3089 3090 3091 3092 3094 3095 3097 3096 3095
3079 3079 3079 3078 3078 3078 3078 3078 3079 3079 3079 3080 3079 3079 3078 3077 3078 3077 3078 3078 3072 3068 3069 3070 3070 3071 3073 3074 3075 3076 3076 3076 3077 3075 3076 3078 3077 3079 3079 3077 3078 3078 3079 3080 3078 3078 3079 3078 3079 3081 3082 3082 3081 3081 3081 3081 3081 3081 3082 3083 3083 3083 3083 3083 3083 3082 3083 3083 3082 3082 3084 3082 3081 3082 3082 3082 3083 3085 3086 3088 3089 3090 3091 3092 3094 3095 3097 3097
3078 3078 3078 3078 3078 3078 3078 3078 3078 3078 3077 3077 3077 3078 3077 3077 3078 3077 3079 3078 3070 3067 3068 3068 3069 3070 3072 3073 3073 3074 3075 3076 3076 3074 3076 3077 3076 3077 3077 3077 3078 3077 3077 3078 3077 3078 3079 3078 3079 3080 3080 3080 3080 3080 3080 3080 3080 3081 3082 3082 3082 3082 3082 3082 3082 3082 3082 3082 3080 3081 3082 3081 3080 3080 3080 3080 3082 3084 3085 3087 3088 3090 3091 3092 3093 3095 3095 3095
3077 3077 3077 3077 3077 3077 3077 3077 3077 3077 3077 3076 3076 3077 3077 3077 3077 3077 3078 3075 3068 3066 3067 3067 3068 3070 3071 3072 3072 3073 3074 3074 3075 3074 3075 3076 3076 3076 3075 3076 3077 3077 3077 3077 3077 3077 3077 3078 3078 3079 3079 3079 3078 3078 3079 3079 3080 3081 3081 3081 3081 3081 3080 3081 3081 3082 3082 3080 3079 3080 3081 3080 3079 3078 3079 3079 3080 3082 3084 3086 3087 3088 3090 3091 3091 3092 3094 3095
3075 3075 3075 3075 3075 3076 3076 3075 3075 3076 3075 3075 3076 3076 3077 3076 3077 3077 3075 3070 3066 3066 3066 3066 3067 3069 3069 3070 3071 3071 3073 3073 3074 3074 3075 3075 3076 3076 3076 3076 3076 3077 3077 3076 3076 3076 3076 3076 3077 3077 3077 3077 3078 3077 3078 3079 3079 3080 3081 3081 3080 3078 3079 3080 3080 3081 3081 3079 3078 3078 3078 3079 3078 3078 3079 3079 3080 3082 3083 3084 3085 3088 3090 3089 3089 3091 3094 3094
3074 3074 3074 3074 3074 3074 3074 3074 3074 3075 3074 3075 3075 3075 3076 3076 3076 3074 3070 3069 3068 3066 3065 3065 3066 3067 3068 3069 3069 3070 3071 3072 3072 3073 3074 3074 3074 3075 3075 3075 3076 3076 3075 3074 3074 3075 3075 3075 3075 3075 3075 3076 3077 3077 3077 3077 3078 3079 3079 3080 3079 3078 3080 3081 3080 3080 3079 3077 3077 3077 3077 3077 3077 3077 3078 3078 3080 3082 3082 3083 3085 3087 3088 3087 3088 3091 3092 3093
3071 3072 3072 3072 3072 3073 3073 3073 3073 3074 3073 3074 3074 3075 3076 3076 3072 3069 3068 3068 3067 3065 3064 3065 3065 3065 3067 3067 3067 3069 3070 3070 3070 3071 3072 3073 3073 3074 3074 3074 3075 3075 3074 3074 3074 3074 3074 3074 3074 3074 3074 3074 3076 3076 3075 3075 3076 3077 3077 3078 3079 3079 3080 3082 3080 3078 3077 3076 3076 3077 3077 3076 3075 3076 3077 3077 3079 3081 3082 3083 3084 3086 3085 3085 3088 3090 3091 3091
3069 3069 3069 3070 3071 3071 3072 3072 3072 3072 3073 3073 3073 3074 3075 3073 3069 3068 3067 3066 3065 3065 3064 3064 3063 3064 3065 3065 3065 3067 3068 3068 3069 3070 3070 3071 3072 3072 3073 3073 3073 3073 3074 3075 3074 3074 3074 3073 3072 3073 3072 3073 3074 3075 3074 3074 3074 3075 3075 3077 3078 3079 3080 3081 3079 3077 3077 3076 3076 3076 3077 3076 3075 3076 3077 3078 3079 3080 3082 3083 3083 3084 3084 3085 3088 3089 3089 3088
3066 3066 3066 3067 3068 3069 3070 3070 3071 3071 3071 3072 3072 3073 3072 3070 3068 3067 3066 3065 3064 3064 3064 3064 3063 3063 3063 3063 3064 3065 3066 3066 3067 3068 3068 3069 3070 3070 3071 3072 3072 3073 3074 3073 3072 3073 3072 3071 3070 3071 3071 3072 3074 3074 3074 3074 3073 3072 3073 3075 3076 3077 3079 3078 3077 3076 3077 3077 3077 3076 3076 3075 3075 3076 3077 3078 3079 3081 3082 3082 3082 3083 3084 3085 3086 3087 3086 3086
3063 3063 3064 3065 3066 3067 3068 3068 3069 3070 3070 3070 3071 3070 3069 3067 3067 3065 3064 3064 3063 3063 3064 3063 3063 3062 3062 3063 3064 3064 3064 3065 3066 3067 3067 3067 3068 3068 3069 3070 3071 3072 3073 3072 3071 3072 3072 3070 3069 3070 3071 3072 3073 3073 3074 3074 3073 3073 3073 3073 3074 3076 3077 3076 3076 3076 3077 3077 3076 3074 3074 3074 3075 3076 3076 3078 3079 3080 3081 3081 3082 3083 3084 3084 3084 3084 3084 3085
3061 3061 3061 3062 3063 3064 3065 3066 3067 3068 3068 3069 3069 3067 3066 3066 3066 3064 3064 3064 3063 3063 3063 3062 3062 3061 3061 3062 3063 3064 3064 3064 3065 3066 3065 3065 3065 3065 3066 3068 3070 3071 3072 3072 3071 3071 3072 3070 3069 3071 3071 3070 3071 3072 3073 3073 3073 3073 3073 3073 3074 3074 3075 3075 3076 3076 3076 3076 3074 3072 3072 3072 3073 3074 3074 3076 3078 3079 3080 3081 3082 3082 3083 3083 3082 3082 3083 3084
3059 3059 3059 3060 3061 3062 3063 3064 3065 3066 3067 3067 3066 3065 3064 3064 3064 3064 3063 3063 3063 3063 3063 3062 3061 3061 3061 3062 3062 3063 3064 3064 3064 3064 3064 3064 3064 3063 3065 3067 3069 3071 3072 3072 3071 3071 3072 3071 3069 3070 3070 3069 3070 3071 3071 3072 3072 3072 3072 3072 3072 3073 3073 3075 3075 3076 3076 3075 3072 3071 3071 3070 3071 3072 3073 3075 3077 3078 3079 3080 3080 3081 3082 3081 3081 3081 3082 3083
3057 3057 3057 3058 3060 3060 3061 3062 3063 3064 3065 3064 3063 3063 3063 3062 3062 3062 3062 3062 3062 3063 3062 3061 3061 3061 3061 3061 3061 3062 3062 3062 3063 3063 3062 3062 3062 3063 3065 3067 3068 3069 3071 3071 3071 3071 3071 3070 3069 3069 3069 3069 3069 3069 3070 3070 3070 3070 3071 3072 3072 3072 3073 3073 3073 3074 3074 3073 3072 3071 3070 3069 3070 3071 3072 3074 3076 3077 3079 3079 3080 3081 3080 3079 3079 3081 3081 3082
3054 3055 3056 3057 3058 3058 3059 3061 3061 3062 3062 3061 3061 3061 3061 3061 3061 3061 3061 3061 3062 3062 3061 3060 3060 3059 3060 3060 3061 3061 3061 3061 3061 3062 3061 3061 3062 3062 3065 3067 3067 3069 3069 3070 3070 3070 3070 3070 3069 3069 3069 3068 3067 3067 3069 3069 3069 3069 3069 3070 3071 3071 3072 3072 3071 3072 3071 3071 3071 3071 3070 3069 3070 3072 3073 3074 3076 3077 3078 3079 3080 3079 3077 3077 3079 3080 3080 3081
3052 3053 3055 3056 3056 3056 3058 3058 3058 3059 3059 3059 3059 3060 3060 3060 3059 3060 3060 3060 3060 3060 3060 3059 3059 3059 3058 3059 3060 3060 3060 3060 3060 3061 3060 3061 3062 3062 3064 3065 3067 3068 3068 3069 3070 3069 3069 3069 3069 3069 3068 3067 3066 3067 3069 3069 3069 3069 3069 3069 3070 3071 3071 3071 3070 3070 3071 3070 3070 3070 3070 3069 3070 3071 3072 3074 3075 3076 3076 3078 3079 3076 3075 3077 3078 3079 3080 3080
3051 3052 3053 3053 3054 3055 3056 3056 3057 3057 3058 3057 3058 3058 3058 3058 3058 3059 3059 3059 3059 3059 3059 3059 3059 3059 3058 3059 3059 3060 3060 3060 3060 3061 3061 3061 3062 3061 3062 3064 3065 3067 3067 3068 3069 3068 3068 3069 3068 3068 3067 3067 3066 3066 3067 3068 3069 3069 3070 3070 3070 3070 3071 3070 3069 3070 3071 3070 3070 3070 3069 3070 3071 3072 3073 3074 3075 3075 3075 3077 3077 3074 3074 3076 3077 3077 3079 3079
3049 3052 3052 3052 3053 3054 3054 3054 3055 3056 3055 3055 3056 3057 3057 3056 3057 3057 3057 3058 3058 3058 3058 3058 3058 3058 3058 3058 3058 3059 3059 3059 3059 3060 3061 3061 3060 3060 3061 3062 3064 3065 3066 3067 3067 3066 3066 3068 3068 3067 3066 3065 3065 3064 3064 3066 3067 3068 3068 3069 3069 3069 3069 3069 3069 3069 3069 3069 3070 3069 3068 3069 3070 3071 3072 3073 3074 3075 3075 3076 3075 3073 3074 3075 3075 3076 3077 3077
3047 3049 3050 3050 3050 3051 3052 3052 3053 3054 3054 3054 3055 3055 3055 3055 3056 3056 3056 3056 3057 3057 3056 3056 3057 3057 3057 3057 3058 3058 3058 3059 3059 3059 3060 3061 3059 3059 3061 3061 3063 3065 3065 3065 3065 3065 3066 3068 3067 3067 3066 3064 3063 3062 3062 3064 3065 3065 3067 3068 3068 3068 3068 3068 3068 3069 3068 3068 3069 3069 3067 3068 3069 3070 3071 3073 3074 3074 3074 3075 3075 3073 3073 3074 3073 3074 3075 3075
3045 3047 3049 3049 3048 3048 3050 3051 3052 3052 3052 3052 3052 3052 3053 3053 3054 3055 3055 3055 3055 3055 3055 3056 3056 3056 3056 3056 3056 3057 3058 3058 3058 3059 3059 3060 3059 3059 3060 3060 3061 3063 3063 3063 3064 3065 3066 3067 3066 3066 3065 3063 3061 3060 3061 3064 3064 3064 3066 3067 3067 3067 3067 3067 3068 3069 3068 3067 3069 3068 3067 3068 3070 3070 3071 3072 3073 3073 3074 3075 3075 3073 3072 3072 3072 3072 3073 3074
3045 3046 3048 3049 3048 3047 3048 3049 3050 3051 3050 3050 3050 3051 3051 3051 3053 3053 3053 3053 3054 3054 3055 3055 3055 3055 3055 3055 3056 3056 3057 3057 3057 3058 3058 3059 3059 3058 3058 3059 3060 3060 3060 3062 3063 3064 3065 3065 3065 3065 3064 3063 3062 3061 3062 3064 3065 3065 3065 3065 3066 3067 3067 3067 3067 3067 3067 3067 3067 3067 3068 3068 3069 3070 3070 3071 3072 3073 3073 3074 3074 3073 3072 3072 3071 3071 3072 3073
3044 3046 3046 3046 3046 3047 3047 3048 3049 3049 3049 3049 3049 3049 3050 3050 3051 3052 3051 3052 3053 3054 3053 3054 3054 3054 3054 3055 3055 3055 3056 3056 3056 3057 3057 3058 3059 3057 3056 3058 3059 3058 3059 3061 3062 3062 3063 3063 3064 3064 3063 3062 3062 3062 3062 3064 3064 3063 3064 3064 3064 3065 3065 3066 3066 3066 3067 3067 3065 3066 3068 3068 3068 3069 3070 3070 3071 3072 3072 3073 3073 3073 3072 3071 3070 3071 3071 3071
3043 3044 3044 3043 3044 3046 3046 3046 3046 3047 3047 3047 3047 3048 3048 3049 3050 3051 3051 3051 3052 3052 3053 3053 3053 3053 3054 3054 3054 3054 3054 3055 3055 3055 3056 3057 3058 3057 3056 3058 3058 3057 3058 3059 3060 3061 3062 3062 3062 3062 3061 3061 3061 3061 3062 3063 3062 3062 3062 3061 3061 3062 3063 3064 3064 3064 3066 3065 3063 3064 3067 3067 3067 3068 3069 3070 3071 3071 3072 3072 3072 3072 3072 3071 3070 3070 3071 3071
3041 3042 3041 3041 3043 3044 3044 3043 3044 3045 3046 3046 3046 3047 3047 3048 3048 3049 3050 3050 3050 3051 3052 3052 3051 3052 3053 3053 3053 3053 3052 3052 3053 3053 3054 3055 3056 3056 3057 3057 3057 3057 3057 3058 3059 3060 3060 3060 3061 3061 3060 3059 3059 3060 3060 3060 3060 3059 3059 3059 3059 3060 3060 3061 3061 3062 3064 3063 3062 3063 3064 3064 3065 3067 3068 3068 3069 3069 3069 3070 3070 3070 3071 3070 3069 3069 3070 3071
3041 3041 3040 3040 3042 3043 3043 3043 3044 3045 3046 3046 3046 3046 3047 3047 3047 3048 3049 3050 3049 3049 3050 3050 3050 3051 3051 3052 3053 3051 3049 3050 3051 3051 3052 3053 3054 3055 3056 3056 3057 3057 3057 3058 3059 3059 3058 3059 3060 3060 3058 3057 3057 3058 3058 3058 3058 3057 3057 3057 3057 3057 3058 3059 3059 3060 3061 3061 3061 3062 3061 3061 3063 3065 3065 3066 3066 3067 3067 3067 3068 3069 3069 3069 3067 3067 3069 3070
3041 3041 3040 3040 3041 3042 3043 3043 3044 3046 3045 3045 3045 3045 3046 3047 3047 3048 3048 3048 3048 3049 3049 3049 3048 3048 3048 3050 3050 3047 3046 3049 3050 3050 3051 3052 3053 3054 3055 3055 3056 3056 3056 3058 3058 3057 3057 3058 3059 3059 3057 3056 3056 3057 3056 3056 3056 3055 3054 3055 3055 3056 3056 3057 3058 3058 3059 3059 3059 3060 3059 3059 3061 3062 3063 3063 3064 3064 3064 3065 3065 3065 3065 3066 3066 3066 3066 3067
3041 3041 3041 3041 3041 3042 3044 3044 3045 3044 3043 3043 3044 3045 3046 3046 3047 3047 3046 3046 3048 3049 3048 3047 3046 3047 3048 3047 3046 3045 3046 3048 3048 3048 3049 3050 3051 3052 3053 3053 3055 3055 3055 3056 3057 3056 3057 3057 3058 3058 3056 3055 3056 3056 3056 3056 3054 3052 3052 3053 3053 3053 3053 3053 3055 3056 3056 3057 3057 3057 3058 3058 3058 3058 3059 3060 3060 3059 3059 3060 3060 3059 3059 3061 3062 3063 3064 3064